Date String (YYYY-MM-DD hh:mm:ss) UTC,Instrument flags,Ambient pressure (hPa),Sample flow (lpm),Bypass flow (lpm),Sample temperature (°C),Ambient temperature (°C),ASC tube jacket temperature (°C),LED temperature (°C),Box temperature (°C),Sample RH (%),Span deviation,Mass concentration (μg/m³),Mass concentration (μg/m³),Mass concentration (μg/m³)
DateTimeUTC,F1_M11,P_M11,Q1_M11,Q2_M11,T1_M11,T2_M11,T3_M11,T4_M11,T5_M11,U1_M11,ZSPAN_M11,X2_M11,X0_M11,X1_M11
2022-04-14 23:00:00,,0819.1,5.00,0.00,24.1,23.3,00.0,33.0,26.0,07.6,0000.0,0003.88,0007.94,0002.65
2022-04-14 23:01:00,,0819.0,5.00,0.00,24.1,23.3,00.0,33.0,26.0,07.2,0000.0,0003.86,0008.04,0002.64
2022-04-14 23:02:00,,0819.1,5.01,0.00,24.1,23.3,00.0,33.0,26.0,07.0,0000.0,0003.91,0008.52,0002.63
2022-04-14 23:03:00,,0819.1,4.99,0.00,24.1,23.3,00.0,33.0,26.1,07.0,0000.0,0003.90,0009.03,0002.63
2022-04-14 23:04:00,,0819.1,4.99,0.00,24.1,23.3,00.0,33.0,26.1,07.1,0000.0,0003.88,0009.06,0002.63
2022-04-14 23:05:00,,0819.1,5.00,0.00,24.2,23.3,00.0,33.0,26.1,07.0,0000.0,0003.83,0008.86,0002.65
2022-04-14 23:06:00,,0819.1,4.99,0.00,24.2,23.4,00.0,33.0,26.1,07.1,0000.0,0003.79,0008.74,0002.66
2022-04-14 23:07:00,,0819.1,5.01,0.00,24.2,23.3,00.0,33.0,26.1,07.2,0000.0,0003.79,0008.75,0002.67
2022-04-14 23:08:00,,0819.2,4.99,0.00,24.2,23.4,00.0,33.0,26.0,07.2,0000.0,0003.83,0008.77,0002.69
2022-04-14 23:09:00,,0819.1,5.02,0.00,24.2,23.4,00.0,33.0,26.0,07.4,0000.0,0003.85,0008.77,0002.71
2022-04-14 23:10:00,,0819.1,4.99,0.00,24.2,23.4,00.0,33.0,26.0,07.7,0000.0,0003.88,0008.87,0002.73
2022-04-14 23:11:00,,0819.1,5.00,0.00,24.2,23.4,00.0,33.1,26.0,07.7,0000.0,0003.83,0009.21,0002.73
2022-04-14 23:12:00,,0819.1,5.00,0.00,24.2,23.5,00.0,33.1,26.1,07.7,0000.0,0003.83,0009.44,0002.73
2022-04-14 23:13:00,,0819.1,5.00,0.00,24.2,23.5,00.0,33.1,26.1,07.6,0000.0,0003.79,0008.96,0002.74
2022-04-14 23:14:00,,0819.1,5.00,0.00,24.2,23.5,00.0,33.1,26.1,07.7,0000.0,0003.74,0008.78,0002.73
2022-04-14 23:15:00,,0819.3,5.02,0.00,24.3,23.5,00.0,33.1,26.2,07.6,0000.0,0003.75,0010.02,0002.72
2022-04-14 23:16:00,,0819.2,4.99,0.00,24.3,23.5,00.0,33.1,26.1,07.6,0000.0,0003.75,0010.67,0002.71
2022-04-14 23:17:00,,0819.1,5.00,0.00,24.3,23.5,00.0,33.1,26.2,07.7,0000.0,0003.79,0010.78,0002.71
2022-04-14 23:18:00,,0819.2,5.00,0.00,24.3,23.5,00.0,33.1,26.2,07.3,0000.0,0003.78,0011.32,0002.70
2022-04-14 23:19:00,,0819.2,5.00,0.00,24.3,23.5,00.0,33.1,26.2,07.3,0000.0,0003.79,0011.41,0002.70
2022-04-14 23:20:00,,0819.2,5.00,0.00,24.3,23.5,00.0,33.2,26.2,07.4,0000.0,0003.78,0011.39,0002.70
2022-04-14 23:21:00,,0819.1,5.01,0.00,24.3,23.5,00.0,33.2,26.2,07.3,0000.0,0003.75,0011.28,0002.71
2022-04-14 23:22:00,,0819.1,5.00,0.00,24.3,23.5,00.0,33.2,26.2,07.4,0000.0,0003.77,0010.92,0002.70
2022-04-14 23:23:00,,0819.0,4.99,0.00,24.3,23.5,00.0,33.2,26.2,07.4,0000.0,0003.79,0010.77,0002.71
2022-04-14 23:24:00,,0819.0,5.01,0.00,24.3,23.5,00.0,33.2,26.2,07.5,0000.0,0003.83,0011.01,0002.70
2022-04-14 23:25:00,,0819.1,5.00,0.00,24.3,23.4,00.0,33.2,26.2,07.5,0000.0,0003.90,0010.92,0002.71
2022-04-14 23:26:00,,0819.1,5.01,0.00,24.3,23.4,00.0,33.2,26.2,07.5,0000.0,0003.92,0009.69,0002.69
2022-04-14 23:27:00,,0819.2,5.01,0.00,24.3,23.4,00.0,33.2,26.2,07.6,0000.0,0003.98,0009.65,0002.71
2022-04-14 23:28:00,,0819.1,4.99,0.00,24.3,23.4,00.0,33.2,26.2,07.7,0000.0,0003.99,0009.80,0002.71
2022-04-14 23:29:00,,0819.1,5.00,0.00,24.3,23.5,00.0,33.2,26.2,07.5,0000.0,0003.98,0009.23,0002.71
2022-04-14 23:30:00,,0819.1,4.99,0.00,24.3,23.4,00.0,33.2,26.2,07.5,0000.0,0003.94,0009.15,0002.71
2022-04-14 23:31:00,,0819.1,5.02,0.00,24.3,23.5,00.0,33.2,26.3,07.7,0000.0,0003.93,0009.95,0002.72
2022-04-14 23:32:00,,0819.1,4.99,0.00,24.3,23.5,00.0,33.2,26.3,07.9,0000.0,0003.96,0010.22,0002.71
2022-04-14 23:33:00,,0819.1,4.99,0.00,24.3,23.5,00.0,33.2,26.3,07.9,0000.0,0003.97,0010.33,0002.71
2022-04-14 23:34:00,,0819.1,5.00,0.00,24.3,23.5,00.0,33.2,26.2,07.7,0000.0,0003.96,0010.12,0002.72
2022-04-14 23:35:00,,0819.2,5.01,0.00,24.3,23.5,00.0,33.2,26.2,07.6,0000.0,0003.93,0010.23,0002.72
2022-04-14 23:36:00,,0819.3,5.01,0.00,24.3,23.5,00.0,33.2,26.3,07.5,0000.0,0003.89,0010.25,0002.72
2022-04-14 23:37:00,,0819.2,5.00,0.00,24.4,23.5,00.0,33.2,26.3,07.4,0000.0,0003.87,0010.79,0002.73
2022-04-14 23:38:00,,0819.2,4.99,0.00,24.4,23.5,00.0,33.2,26.3,07.5,0000.0,0003.86,0010.53,0002.71
2022-04-14 23:39:00,,0819.2,4.99,0.00,24.4,23.5,00.0,33.2,26.2,07.7,0000.0,0003.83,0010.97,0002.70
2022-04-14 23:40:00,,0819.2,5.01,0.00,24.4,23.5,00.0,33.2,26.2,07.9,0000.0,0003.86,0011.05,0002.71
2022-04-14 23:41:00,,0819.3,4.99,0.00,24.4,23.6,00.0,33.2,26.2,07.9,0000.0,0003.93,0011.29,0002.71
2022-04-14 23:42:00,,0819.2,4.99,0.00,24.4,23.6,00.0,33.2,26.3,07.9,0000.0,0003.98,0010.77,0002.69
2022-04-14 23:43:00,,0819.2,5.00,0.00,24.4,23.6,00.0,33.2,26.3,07.9,0000.0,0004.00,0010.95,0002.68
2022-04-14 23:44:00,,0819.2,5.00,0.00,24.4,23.6,00.0,33.2,26.3,07.9,0000.0,0003.94,0010.76,0002.67
2022-04-14 23:45:00,,0819.2,5.01,0.00,24.4,23.6,00.0,33.2,26.3,08.2,0000.0,0003.92,0011.12,0002.64
2022-04-14 23:46:00,,0819.2,4.99,0.00,24.4,23.6,00.0,33.2,26.3,08.2,0000.0,0003.90,0011.62,0002.61
2022-04-14 23:47:00,,0819.2,5.02,0.00,24.4,23.6,00.0,33.3,26.3,08.1,0000.0,0003.88,0011.32,0002.59
2022-04-14 23:48:00,,0819.2,5.00,0.00,24.4,23.6,00.0,33.3,26.3,08.1,0000.0,0003.86,0010.83,0002.57
2022-04-14 23:49:00,,0819.3,5.00,0.00,24.4,23.6,00.0,33.3,26.3,08.0,0000.0,0003.84,0010.49,0002.56
2022-04-14 23:50:00,,0819.3,5.00,0.00,24.4,23.6,00.0,33.3,26.3,08.0,0000.0,0003.84,0009.96,0002.56
2022-04-14 23:51:00,,0819.2,5.00,0.00,24.4,23.6,00.0,33.3,26.3,08.0,0000.0,0003.83,0009.69,0002.54
2022-04-14 23:52:00,,0819.2,4.99,0.00,24.4,23.6,00.0,33.3,26.3,08.0,0000.0,0003.77,0009.61,0002.51
2022-04-14 23:53:00,,0819.2,5.00,0.00,24.4,23.6,00.0,33.3,26.3,08.1,0000.0,0003.74,0009.59,0002.49
2022-04-14 23:54:00,,0819.2,5.02,0.00,24.4,23.5,00.0,33.3,26.3,08.0,0000.0,0003.68,0009.17,0002.47
2022-04-14 23:55:00,,0819.2,4.99,0.00,24.4,23.5,00.0,33.3,26.3,07.9,0000.0,0003.67,0009.08,0002.46
2022-04-14 23:56:00,,0819.2,5.01,0.00,24.4,23.5,00.0,33.3,26.3,08.0,0000.0,0003.69,0008.92,0002.46
2022-04-14 23:57:00,,0819.2,5.01,0.00,24.4,23.5,00.0,33.3,26.3,08.1,0000.0,0003.74,0009.11,0002.47
2022-04-14 23:58:00,,0819.2,4.98,0.00,24.4,23.5,00.0,33.3,26.3,08.1,0000.0,0003.74,0009.25,0002.46
2022-04-14 23:59:00,,0819.3,5.01,0.00,24.4,23.5,00.0,33.3,26.3,08.1,0000.0,0003.78,0009.49,0002.46
